sat.trackr.live / text

‹ back to catalog

STARLINK-1556

NORAD 46033 · 2020-055G

PAYLOAD ACTIVE UNKNOWN

§ Identity

Operator
Country
US
Launch date
2020-08-07
Launch site
AFETR
Launch vehicle
Mass (kg)
RCS (m²)

Purposes: comms

External: N2YO · Heavens-Above · Gunter

§ Orbital elements

Epoch: 2026-05-25T05:28:31.423872Z

Period
94.11 min
Inclination
53.1601°
Eccentricity
0.0001600
Mean motion
15.30196819 rev/d
Perigee alt
474.1 km
Apogee alt
476.3 km
Semi-major
6,853.4 km
B*
5.4059e-5
RAAN
131.2004°
Arg perigee
111.3275°
Mean anomaly
248.7896°
Rev number
32,058

§ Raw data

STARLINK-15561 46033U 20055G   26145.22814148  .00001242  00000+0  54059-4 0  99912 46033  53.1601 131.2004 0001600 111.3275 248.7896 15.30196819320587

JSON: /api/v1/satellites/46033 · /tle

For live sub-satellite position, see the globe view (requires WebGL).

§ Visibility from observer

Set your observer location to see the next 7 days of passes ≥ 10°. The values pass through the URL so the page stays shareable.

No JS? Fill the form by hand. The geolocation button needs JavaScript.